Cairo, IL

9:26 AM CST on December 14, 2017 (GMT -0600)
Cairo Regional

Weather History for KCIR - January, 2014

Change the Weather History Date:

Thursday, January 23, 2014

  Actual Average Record
Temperature  
Mean Temperature 16 °F -  
Max Temperature 27 °F 45 °F 73 °F (1967)
Min Temperature 6 °F 28 °F -4 °F (1963)
Degree Days  
Heating Degree Days 48    
Moisture  
Dew Point 1 °F    
Average Humidity 54    
Maximum Humidity 79    
Minimum Humidity 33    
Precipitation  
Precipitation 0.00 in - - ()
Sea Level Pressure  
Sea Level Pressure 30.61 in    
Wind  
Wind Speed 10 mph (NNW)    
Max Wind Speed 22 mph    
Max Gust Speed 25 mph    
Visibility 10 miles    
Events      
Averages and records for this station are not official NWS values.
T = Trace of Precipitation, MM = Missing Value Source: NWS Daily Summary

Daily Weather History Graph

Daily Weather History Graph

Search for Another Location

Airport or City:

Trip Planner

Search our weather history database for the weather conditions in past years. The results will help you decide how hot, cold, wet, or windy it might be!

Date:

Astronomy

Jan. 23, 2014 Rise Set
Actual Time 7:05 AM CST 5:12 PM CST
Civil Twilight 6:37 AM CST 5:40 PM CST
Nautical Twilight 6:06 AM CST 6:11 PM CST
Astronomical Twilight 5:35 AM CST 6:42 PM CST
Moon No Moon Rise 10:51 AM CST (1/23)
Length of Visible Light 11h 02m
Length of Day
10h 06m
Waning Gibbous, 55% of the Moon is Illuminated
Jan 23
Waning Gibbous
Jan 23
Last Quarter
Jan 30
New
Feb 6
First Quarter
Feb 14
Full

Hourly Weather History & Observations

Time (CST) Temp. Windchill Dew Point Humidity Pressure Visibility Wind Dir Wind Speed Gust Speed Precip Events Conditions
12:15 AM 22.6 °F 13.4 °F 14.4 °F 71% 30.25 in 10.0 mi NNW 8.1 mph - N/A   Clear
12:35 AM 27.5 °F 17.4 °F 16.3 °F 63% 30.26 in 10.0 mi NNW 11.5 mph - N/A   Clear
12:55 AM 26.4 °F 16.0 °F 16.2 °F 65% 30.28 in 10.0 mi North 11.5 mph 21.9 mph N/A   Clear
1:15 AM 25.7 °F 16.4 °F 16.2 °F 67% 30.29 in 10.0 mi North 9.2 mph - N/A   Clear
1:35 AM 24.8 °F 16.1 °F 15.4 °F 68% 30.31 in 10.0 mi North 8.1 mph - N/A   Clear
1:55 AM 25.0 °F 13.1 °F 15.1 °F 66% 30.32 in 10.0 mi NNW 13.8 mph - N/A   Clear
2:15 AM 24.4 °F 14.2 °F 14.4 °F 66% 30.34 in 10.0 mi North 10.4 mph - N/A   Clear
2:35 AM 24.4 °F 12.4 °F 13.1 °F 62% 30.36 in 10.0 mi NNW 13.8 mph 18.4 mph N/A   Clear
2:55 AM 24.1 °F 14.4 °F 12.0 °F 60% 30.37 in 10.0 mi NNW 9.2 mph - N/A   Clear
3:15 AM 23.2 °F 10.8 °F 10.9 °F 60% 30.38 in 10.0 mi North 13.8 mph 21.9 mph N/A   Scattered Clouds
3:35 AM 22.1 °F 7.2 °F 11.7 °F 64% 30.40 in 10.0 mi NNW 19.6 mph - N/A   Mostly Cloudy
3:55 AM 20.1 °F 3.8 °F 7.5 °F 58% 30.42 in 10.0 mi NNW 21.9 mph 25.3 mph N/A   Scattered Clouds
4:15 AM 18.5 °F 3.8 °F 3.2 °F 51% 30.44 in 10.0 mi NNW 16.1 mph 25.3 mph N/A   Clear
4:35 AM 17.4 °F 4.1 °F 1.9 °F 51% 30.45 in 10.0 mi North 12.7 mph - N/A   Clear
4:55 AM 16.5 °F 3.0 °F 3.6 °F 57% 30.47 in 10.0 mi North 12.7 mph 16.1 mph N/A   Clear
5:15 AM 15.8 °F 2.1 °F 3.0 °F 57% 30.49 in 10.0 mi North 12.7 mph - N/A   Clear
5:35 AM 14.0 °F 0.5 °F 1.4 °F 57% 30.51 in 10.0 mi North 11.5 mph - N/A   Clear
5:55 AM 13.1 °F 0.1 °F 1.2 °F 59% 30.52 in 10.0 mi North 10.4 mph 17.3 mph N/A   Clear
6:15 AM 12.7 °F -2.5 °F 1.0 °F 60% 30.54 in 10.0 mi North 13.8 mph 19.6 mph N/A   Clear
6:35 AM 11.8 °F -3.6 °F -0.4 °F 58% 30.56 in 10.0 mi North 13.8 mph - N/A   Clear
6:55 AM 11.3 °F -4.3 °F -1.1 °F 57% 30.57 in 10.0 mi North 13.8 mph 20.7 mph N/A   Clear
7:15 AM 11.3 °F -3.6 °F -1.3 °F 57% 30.58 in 10.0 mi North 12.7 mph - N/A   Clear
7:35 AM 11.3 °F -3.6 °F -1.5 °F 57% 30.59 in 10.0 mi North 12.7 mph - N/A   Clear
7:55 AM 11.3 °F -3.6 °F -1.3 °F 57% 30.61 in 10.0 mi North 12.7 mph - N/A   Clear
8:15 AM 11.7 °F -2.5 °F -0.9 °F 57% 30.62 in 10.0 mi North 11.5 mph - N/A   Clear
8:35 AM 12.4 °F -1.6 °F 0.1 °F 58% 30.63 in 10.0 mi NNW 11.5 mph - N/A   Clear
8:55 AM 12.7 °F -2.5 °F -1.5 °F 53% 30.64 in 10.0 mi North 13.8 mph - N/A   Clear
9:15 AM 13.5 °F 1.3 °F -2.2 °F 50% 30.66 in 10.0 mi North 9.2 mph 18.4 mph N/A   Clear
9:35 AM 14.2 °F 1.4 °F -2.0 °F 49% 30.67 in 10.0 mi NNW 10.4 mph - N/A   Clear
9:55 AM 15.3 °F 5.4 °F -0.8 °F 49% 30.68 in 10.0 mi North 6.9 mph - N/A   Clear
10:15 AM 16.3 °F 3.4 °F -0.6 °F 47% 30.69 in 10.0 mi NW 11.5 mph - N/A   Clear
10:35 AM 16.7 °F 4.5 °F -0.9 °F 46% 30.69 in 10.0 mi NNW 10.4 mph 19.6 mph N/A   Clear
10:55 AM 17.1 °F 2.5 °F -1.7 °F 44% 30.70 in 10.0 mi NNW 15.0 mph - N/A   Clear
11:15 AM 17.2 °F 5.2 °F -2.4 °F 42% 30.70 in 10.0 mi NNW 10.4 mph - N/A   Clear
11:35 AM 18.1 °F 5.6 °F -2.9 °F 39% 30.69 in 10.0 mi North 11.5 mph 16.1 mph N/A   Clear
11:55 AM 18.5 °F 6.1 °F -3.1 °F 39% 30.69 in 10.0 mi NNW 11.5 mph 18.4 mph N/A   Clear
12:15 PM 19.4 °F 5.0 °F -3.1 °F 37% 30.68 in 10.0 mi NNW 16.1 mph - N/A   Clear
12:35 PM 19.2 °F 6.4 °F -2.9 °F 38% 30.67 in 10.0 mi North 12.7 mph - N/A   Clear
12:55 PM 19.6 °F 6.8 °F -2.9 °F 37% 30.67 in 10.0 mi NNW 12.7 mph 17.3 mph N/A   Clear
1:15 PM 19.9 °F 10.1 °F -3.1 °F 36% 30.67 in 10.0 mi NW 8.1 mph - N/A   Clear
1:35 PM 21.4 °F 8.0 °F -2.0 °F 36% 30.67 in 10.0 mi NNW 15.0 mph - N/A   Clear
1:55 PM 21.4 °F 9.1 °F -3.1 °F 34% 30.67 in 10.0 mi NW 12.7 mph - N/A   Clear
2:15 PM 21.4 °F 8.5 °F -4.2 °F 33% 30.67 in 10.0 mi NNW 13.8 mph - N/A   Clear
2:35 PM 20.1 °F 6.9 °F -3.6 °F 35% 30.68 in 10.0 mi NNW 13.8 mph 18.4 mph N/A   Clear
2:55 PM 19.4 °F 7.2 °F -2.7 °F 38% 30.69 in 10.0 mi NNW 11.5 mph - N/A   Clear
3:15 PM 18.1 °F 5.0 °F -3.1 °F 39% 30.70 in 10.0 mi NNW 12.7 mph - N/A   Clear
3:35 PM 17.6 °F 4.3 °F -2.4 °F 41% 30.70 in 10.0 mi NW 12.7 mph - N/A   Clear
3:55 PM 17.2 °F 3.9 °F -2.6 °F 42% 30.70 in 10.0 mi NNW 12.7 mph - N/A   Clear
4:15 PM 16.7 °F 5.3 °F -2.4 °F 43% 30.71 in 10.0 mi NNW 9.2 mph - N/A   Clear
4:35 PM 15.8 °F 2.7 °F -2.7 °F 44% 30.71 in 10.0 mi North 11.5 mph - N/A   Clear
4:55 PM 15.3 °F 2.8 °F -2.2 °F 46% 30.71 in 10.0 mi NNW 10.4 mph - N/A   Clear
5:15 PM 14.9 °F 5.0 °F -1.8 °F 48% 30.72 in 10.0 mi NNW 6.9 mph - N/A   Clear
5:35 PM 14.7 °F 3.8 °F -1.3 °F 49% 30.73 in 10.0 mi NNW 8.1 mph - N/A   Clear
5:55 PM 14.9 °F 3.1 °F -0.6 °F 50% 30.73 in 10.0 mi NNW 9.2 mph - N/A   Clear
6:15 PM 14.0 °F 2.9 °F -1.3 °F 51% 30.74 in 10.0 mi NNW 8.1 mph - N/A   Clear
6:35 PM 12.7 °F 3.6 °F -1.3 °F 54% 30.74 in 10.0 mi North 5.8 mph - N/A   Clear
6:55 PM 11.7 °F 3.7 °F -1.1 °F 57% 30.75 in 10.0 mi NNW 4.6 mph - N/A   Clear
7:15 PM 11.3 °F 3.3 °F -0.4 °F 59% 30.75 in 10.0 mi North 4.6 mph - N/A   Clear
7:35 PM 11.3 °F - -0.4 °F 59% 30.76 in 10.0 mi Calm Calm - N/A   Clear
7:55 PM 11.1 °F - -0.2 °F 60% 30.76 in 10.0 mi Calm Calm - N/A   Clear
8:35 PM 10.0 °F - -0.9 °F 61% 30.76 in 10.0 mi Calm Calm - N/A   Clear
8:55 PM 10.8 °F - -0.9 °F 59% 30.76 in 10.0 mi Calm Calm - N/A   Clear
9:15 PM 9.9 °F - -0.9 °F 62% 30.76 in 10.0 mi Calm Calm - N/A   Clear
9:55 PM 9.1 °F - -0.4 °F 65% 30.76 in 10.0 mi Calm Calm - N/A   Clear
10:15 PM 8.1 °F - 0.1 °F 70% 30.77 in 10.0 mi Calm Calm - N/A   Clear
10:35 PM 7.5 °F - 0.5 °F 73% 30.77 in 10.0 mi Calm Calm - N/A   Clear
10:55 PM 6.8 °F - 0.5 °F 75% 30.77 in 10.0 mi Calm Calm - N/A   Clear
11:15 PM 6.3 °F - -0.4 °F 74% 30.78 in 10.0 mi Calm Calm - N/A   Clear
11:35 PM 6.8 °F - 0.5 °F 75% 30.77 in 10.0 mi Calm Calm - N/A   Clear
11:55 PM 7.0 °F - 1.6 °F 79% 30.76 in 10.0 mi Calm Calm - N/A   Clear